Home > Weather > Bismarck > Past weeks

Flag for USA Past Weather in Bismarck, North Dakota, USA — Yesterday and Last 2 Weeks

Now
67 °F

Mostly cloudy.


Feels Like: 67 °F
Forecast: 68 / 84 °F
Wind: 24 mph from North

Location: Bismarck Municipal Airport

Current Time: Jul 23, 2016 at 10:17:06 AM

Latest Report: Jul 23, 2016 at 8:52 AM


Visibility: 10 mi

Pressure: 29.79 "Hg (28.05 "Hg at 513m altitude)

Humidity: 93%

Dew Point: 65 °F

Location of BismarckLocation

Past Weather in Bismarck — Graph

°F

Bismarck Temperature Yesterday

Maximum temperature yesterday: 88 °F (at 4:52 PM)
Minimum temperature yesterday: 65 °F (at 5:52 AM)
Average temperature yesterday: 77 °F

High & Low Weather Summary for the Past Weeks

 TemperatureHumidityPressure
High97 °F (Jul 20, 4:52 PM)100% (Jul 15, 5:52 AM)30.14 "Hg (Jul 15, 5:52 AM)
Low51 °F (Jul 15, 5:52 AM)38% (Jul 8, 3:52 PM)29.49 "Hg (Jul 11, 3:03 AM)
Average72 °F70%29.87 "Hg
* Reported Jul 8 8:52 AM — Jul 23 8:52 AM, Bismarck, Weather by CustomWeather, © 2016

Note: Actual official high and low records may vary slightly from our data, if they occured in-between our weather recording intervals... More about our weather records

Advertising

Bismarck Weather History for the Previous 24 Hours

Scroll right to see more
 ConditionsComfort  
Time TempWeatherWind HumidityBarometerVisibility
8:52 AM
Sat, Jul 23
67 °FMostly cloudy.24 mph93%29.79 "Hg10 mi
7:52 AM66 °FThunderstorms. Fog.5 mph96%29.77 "Hg6 mi
6:52 AM69 °FPassing clouds.12 mph81%29.75 "Hg10 mi
5:52 AM70 °FOvercast.9 mph79%29.78 "Hg10 mi
4:52 AM71 °FOvercast.5 mph76%29.82 "Hg10 mi
3:52 AM69 °FClear.14 mph84%29.81 "Hg10 mi
2:52 AM70 °FPassing clouds.3 mph81%29.82 "Hg10 mi
1:52 AM70 °FThunderstorms. Overcast.15 mph79%29.85 "Hg10 mi
12:52 AM68 °FThunderstorms. Partly cloudy.26 mph87%29.91 "Hg10 mi
12:01 AM72 °FThunderstorms. Passing clouds.17 mph68%29.92 "Hg10 mi
11:52 PM
Fri, Jul 22
71 °FPassing clouds.21 mph73%29.88 "Hg10 mi
10:52 PM70 °FOvercast.18 mph84%29.99 "Hg10 mi
9:52 PM70 °FLight rain. Overcast.12 mph93%30.04 "Hg8 mi
8:59 PM73 °FThundershowers. More clouds than sun.20 mph81%29.98 "Hg10 mi
8:52 PM72 °FLight rain. Partly sunny.14 mph87%29.96 "Hg10 mi
7:52 PM76 °FThunderstorms. Broken clouds.13 mph74%29.96 "Hg10 mi
6:52 PM83 °FThunderstorms. Scattered clouds.15 mph72%29.89 "Hg10 mi
5:52 PM88 °FSunny.20 mph65%29.87 "Hg10 mi
4:52 PM88 °FPassing clouds.16 mph67%29.94 "Hg10 mi
3:52 PM86 °FBroken clouds.15 mph72%29.96 "Hg10 mi
2:52 PM87 °FPassing clouds.10 mph69%29.99 "Hg10 mi
1:52 PM87 °FPartly sunny.12 mph65%29.98 "Hg10 mi
12:52 PM86 °FSunny.8 mph70%29.97 "Hg10 mi
11:52 AM85 °FSunny.14 mph70%29.97 "Hg10 mi
10:52 AM80 °FPassing clouds.7 mph76%30.02 "Hg10 mi
Weather by CustomWeather, © 2016

See weather overviewHow to use our weather pages